星链-32100 (STARLINK-32100 )

导读

STARLINK-32100是美国太空探索技术公司SpaceX星链星座中的一颗卫星,于2024年5月8日发射升空。作为星链互联网星座组网卫星,它承担着为全球提供高速宽带互联网服务的任务,服务覆盖偏远地区、海洋、航空等场景,进一步完善了星链星座的全球覆盖与服务能力,延续了SpaceX批量部署星链卫星的进程。

基本信息
目录编号:
59686
目录名称:
STARLINK-32100
国际标识:
2024-086E
轨道中心:
EARTH
卫星名称:
星链-32100
卫星全名:
星链-32100 (STARLINK-32100 )
卫星状态:
在轨 (已飞行849 天)
发射日期:
2024-05-08 UTC
国别 :
美国 (US)
星等 :
--
轨道信息
数据来源 国际轨道数据 AOE轨道数据
星历时间 2026-09-04T00:54:07+0800
13小时前
查看轨道信息
2026-08-31T22:00:00+0800
3天前
查看轨道信息
半长轴 6861.13km 6861.157km
偏心率 0.0001323 0.0001592
轨道倾角 43.003° 43.001°
近地点辐角 257.603° 257.383°
升交点赤经 116.459° 134.087°
平近点角 102.468° 199.672°
近地点 482.085km 481.927km
远地点 483.901km 484.113km
周期 94.266分钟 94.266分钟
每日圈数 15.27599 15.275898
详细信息
固有亮度:
5
最大亮度:
1.5
卫星平台:
Starlink v2.0 mini
覆盖范围:
全球
运营商:
太空探索技术公司
运营商所在国:
美国
制造商(研发单位):
太空探索技术公司
制造商所在国:
美国
使用方式:
暂无
卫星简介
星链(Starlink)计划是由太空探索技术公司(SpaceX)提出的一个巨型低轨卫星互联网星座项目,计划在2019年至2024年间在太空搭建由约1.2万颗卫星组成的“星链”网络,其中1584颗将部署在地球上空550千米处的近地轨道,并从2020年开始工作。该卫星仍在工作。
2D轨道图
3D轨道图
轨道高度分析图
轨道倾角分析图
轨道综合分析图
查看轨道综合分析图
交会数据列表
事件ID 空间交会对象 最接近时刻(TCA) 交会距离 交会风险概率(CRP) 交会风险指数(CRI) 操作
CDM_260905-022505-968606-762621
2026-09-05T
02:25:24+0000
0.350 km
远距离
2.981759E-4 高风险 0.84
CDM_260904-174705-968606-762622
2026-09-04T
17:47:34+0000
0.928 km
远距离
2.238518E-5 中风险 0.62
CDM_260904-081705-968606-679621
2026-09-04T
08:17:55+0000
0.916 km
远距离
1.717399E-5 中风险 0.6
CDM_260904-165505-968606-679621
2026-09-04T
16:55:45+0000
1.045 km
极远距离
1.093762E-5 中风险 0.56
CDM_260904-064305-968606-679622
2026-09-04T
06:43:45+0000
1.125 km
极远距离
8.465948E-6 低风险 0.54
CDM_260904-192105-968606-762621
2026-09-04T
19:21:43+0000
1.452 km
极远距离
4.849379E-6 低风险 0.49
CDM_260905-064205-968606-220821
2026-09-05T
06:42:14+0000
1.577 km
极远距离
4.230014E-6 低风险 0.48
CDM_260904-152105-968606-679622
2026-09-04T
15:21:36+0000
1.544 km
极远距离
2.98051E-6 低风险 0.44
CDM_260905-081605-968606-220821
2026-09-05T
08:16:24+0000
1.808 km
极远距离
2.819724E-6 低风险 0.44
CDM_260904-223405-968606-710221
2026-09-04T
22:34:12+0000
2.126 km
极远距离
1.850745E-6 低风险 0.4